SAS580 LFPG-ESSA

Flight info

Callsign SAS580
Flight time N/A
Altitude 36000
Route NURMO6H/08L NURMO DCT CMB DCT VEKIN DCT ADUTO N873 VICOT DCT DOSUR/N0439F370 DCT MIKNA N851 PELUP Z226 NILUG
Aircraft A320/M-SDE3FGHIRWY/LB1

Departure

Time 2026-05-04 21:09
Airport Charles de Gaulle International Airport (LFPG)

Arrival

Time N/A
Airport Stockholm-Arlanda Airport (ESSA)
Time Latitude Longitude Altitude Speed Heading
2026-05-04 20:51 49.00540 2.56951 355 ft 0 kts 241°
2026-05-04 20:56 49.00539 2.56950 355 ft 2 kts 241°
2026-05-04 20:56 49.00548 2.56968 355 ft 2 kts 216°
2026-05-04 20:57 49.00561 2.56982 355 ft 2 kts 182°
2026-05-04 20:57 49.00575 2.56982 355 ft 2 kts 166°
2026-05-04 20:57 49.00590 2.56976 355 ft 2 kts 162°
2026-05-04 20:57 49.00604 2.56969 355 ft 2 kts 171°
2026-05-04 20:58 49.00619 2.56965 355 ft 2 kts 171°
2026-05-04 20:58 49.00635 2.56965 355 ft 2 kts 227°
2026-05-04 20:58 49.00641 2.56977 355 ft 0 kts 269°
2026-05-04 21:01 49.00641 2.56975 355 ft 1 kts 269°
2026-05-04 21:01 49.00637 2.56935 355 ft 6 kts 257°
2026-05-04 21:02 49.00629 2.56842 355 ft 12 kts 266°
2026-05-04 21:02 49.00620 2.56690 359 ft 17 kts 265°
2026-05-04 21:02 49.00610 2.56480 355 ft 23 kts 264°
2026-05-04 21:02 49.00596 2.56220 355 ft 22 kts 264°
2026-05-04 21:03 49.00577 2.56052 355 ft 12 kts 252°
2026-05-04 21:03 49.00564 2.55930 362 ft 9 kts 276°
2026-05-04 21:03 49.00569 2.55846 355 ft 9 kts 265°
2026-05-04 21:03 49.00562 2.55747 364 ft 6 kts 265°
2026-05-04 21:04 49.00561 2.55717 355 ft 7 kts 265°
2026-05-04 21:04 49.00556 2.55630 355 ft 0 kts 265°
2026-05-04 21:04 49.00555 2.55607 355 ft 5 kts 264°
2026-05-04 21:05 49.00550 2.55510 363 ft 13 kts 265°
2026-05-04 21:05 49.00507 2.55353 357 ft 20 kts 217°
2026-05-04 21:05 49.00356 2.55368 355 ft 22 kts 163°
2026-05-04 21:05 49.00252 2.55417 354 ft 17 kts 165°
2026-05-04 21:06 49.00150 2.55458 358 ft 14 kts 162°
2026-05-04 21:06 49.00059 2.55506 354 ft 7 kts 159°
2026-05-04 21:06 49.00005 2.55526 354 ft 9 kts 167°
2026-05-04 21:06 48.99941 2.55552 354 ft 10 kts 160°
2026-05-04 21:07 48.99877 2.55615 360 ft 12 kts 137°
2026-05-04 21:07 48.99837 2.55722 354 ft 12 kts 108°
2026-05-04 21:07 48.99777 2.55805 361 ft 13 kts 167°
2026-05-04 21:07 48.99681 2.55818 360 ft 15 kts 175°
2026-05-04 21:08 48.99600 2.55871 356 ft 7 kts 92°
2026-05-04 21:08 48.99609 2.56018 359 ft 36 kts 84°
2026-05-04 21:08 48.99650 2.56748 356 ft 100 kts 85°
2026-05-04 21:08 48.99720 2.58065 355 ft 147 kts 85°
2026-05-04 21:09 48.99808 2.59827 396 ft 182 kts 86°
2026-05-04 21:09 48.99900 2.61716 1037 ft 177 kts 85°
2026-05-04 21:09 48.99996 2.63597 1687 ft 178 kts 85°
2026-05-04 21:09 49.00086 2.65481 2319 ft 180 kts 85°
2026-05-04 21:10 49.00182 2.67496 2556 ft 202 kts 85°
2026-05-04 21:10 49.00310 2.69731 2818 ft 223 kts 84°
2026-05-04 21:10 49.00459 2.72200 3021 ft 251 kts 84°
2026-05-04 21:10 49.00616 2.74923 3650 ft 262 kts 85°
2026-05-04 21:11 49.00764 2.77720 4441 ft 268 kts 85°
2026-05-04 21:11 49.01081 2.80505 5297 ft 269 kts 70°
2026-05-04 21:11 49.02076 2.82900 6089 ft 272 kts 41°
2026-05-04 21:11 49.03745 2.84265 6849 ft 276 kts 14°
2026-05-04 21:12 49.05664 2.84454 7593 ft 280 kts 355°
2026-05-04 21:12 49.07617 2.84195 8370 ft 283 kts 356°
2026-05-04 21:12 49.09599 2.83951 9123 ft 287 kts 356°
2026-05-04 21:12 49.11599 2.83717 9856 ft 291 kts 356°
2026-05-04 21:13 49.13654 2.83483 10287 ft 306 kts 356°
2026-05-04 21:13 49.15854 2.83234 10441 ft 328 kts 356°
2026-05-04 21:13 49.18179 2.82971 10832 ft 339 kts 356°
2026-05-04 21:13 49.20547 2.82703 10945 ft 342 kts 356°
2026-05-04 21:14 49.22920 2.82435 10954 ft 342 kts 356°
2026-05-04 21:14 49.25292 2.82167 10951 ft 342 kts 356°
2026-05-04 21:14 49.27667 2.81898 10950 ft 342 kts 356°
2026-05-04 21:14 49.30026 2.81626 10951 ft 340 kts 356°
2026-05-04 21:15 49.32383 2.81356 10952 ft 340 kts 357°
2026-05-04 21:15 49.34748 2.81086 10956 ft 340 kts 357°
2026-05-04 21:15 49.37121 2.80810 11346 ft 344 kts 356°
2026-05-04 21:15 49.39504 2.80533 12051 ft 345 kts 356°
2026-05-04 21:16 49.41915 2.80254 12707 ft 348 kts 356°
2026-05-04 21:16 49.44344 2.79976 13360 ft 352 kts 356°
2026-05-04 21:16 49.46793 2.79693 13964 ft 355 kts 356°
2026-05-04 21:16 49.49267 2.79405 14526 ft 358 kts 356°
2026-05-04 21:17 49.51764 2.79117 15097 ft 361 kts 356°
2026-05-04 21:17 49.54279 2.78825 15651 ft 364 kts 356°
2026-05-04 21:17 49.56807 2.78531 16193 ft 367 kts 356°
2026-05-04 21:17 49.59360 2.78233 16737 ft 370 kts 356°
2026-05-04 21:18 49.61947 2.77933 17275 ft 373 kts 356°
2026-05-04 21:18 49.64548 2.77634 17817 ft 377 kts 356°
2026-05-04 21:18 49.67174 2.77329 18362 ft 380 kts 355°
2026-05-04 21:18 49.69827 2.77022 18794 ft 384 kts 355°
2026-05-04 21:19 49.72489 2.76715 18928 ft 384 kts 355°
2026-05-04 21:19 49.75154 2.76405 18957 ft 383 kts 355°
2026-05-04 21:19 49.77793 2.76095 18963 ft 383 kts 355°
2026-05-04 21:19 49.80471 2.76126 18961 ft 383 kts
2026-05-04 21:20 49.83074 2.76933 18965 ft 383 kts 17°
2026-05-04 21:20 49.85511 2.78458 18965 ft 383 kts 27°
2026-05-04 21:20 49.87790 2.80585 18968 ft 383 kts 32°
2026-05-04 21:20 49.90043 2.82792 18964 ft 383 kts 32°
2026-05-04 21:21 49.92299 2.85000 19056 ft 386 kts 32°
2026-05-04 21:21 49.94573 2.87231 19621 ft 387 kts 32°
2026-05-04 21:21 49.96856 2.89476 20179 ft 389 kts 32°
2026-05-04 21:21 49.99152 2.91733 20691 ft 392 kts 32°
2026-05-04 21:22 50.01469 2.94007 21162 ft 396 kts 32°
2026-05-04 21:22 50.03804 2.96300 21645 ft 399 kts 32°
2026-05-04 21:22 50.06156 2.98617 22094 ft 402 kts 33°
2026-05-04 21:22 50.08530 3.00962 22563 ft 405 kts 33°
2026-05-04 21:23 50.10920 3.03332 23010 ft 409 kts 33°
2026-05-04 21:23 50.13319 3.05718 23471 ft 411 kts 33°
2026-05-04 21:23 50.15743 3.08125 23841 ft 415 kts 33°
2026-05-04 21:23 50.18182 3.10546 24221 ft 417 kts 32°
2026-05-04 21:24 50.20639 3.12981 24580 ft 420 kts 32°
2026-05-04 21:24 50.23154 3.15339 24913 ft 423 kts 26°
2026-05-04 21:24 50.25838 3.17263 25265 ft 426 kts 24°
2026-05-04 21:24 50.28557 3.19158 25599 ft 428 kts 24°
2026-05-04 21:25 50.31279 3.21061 25974 ft 430 kts 24°
2026-05-04 21:25 50.34020 3.22980 26299 ft 433 kts 23°
2026-05-04 21:25 50.36776 3.24917 26654 ft 435 kts 23°
2026-05-04 21:25 50.39538 3.26865 27005 ft 436 kts 24°
2026-05-04 21:26 50.42299 3.28852 27366 ft 438 kts 25°
2026-05-04 21:26 50.45016 3.30914 27691 ft 440 kts 26°
2026-05-04 21:26 50.47761 3.33080 28026 ft 443 kts 26°
2026-05-04 21:26 50.50507 3.35289 28343 ft 445 kts 26°
2026-05-04 21:27 50.53279 3.37474 28653 ft 447 kts 25°
2026-05-04 21:27 50.56095 3.39528 28942 ft 449 kts 23°
2026-05-04 21:27 50.58991 3.41517 29254 ft 452 kts 22°
2026-05-04 21:27 50.61890 3.43449 29625 ft 452 kts 22°
2026-05-04 21:28 50.63555 3.44551 29935 ft 450 kts 22°
2026-05-04 21:28 50.65966 3.46153 30324 ft 448 kts 22°
2026-05-04 21:28 50.67983 3.47515 30590 ft 447 kts 23°
2026-05-04 21:28 50.70658 3.49348 30944 ft 447 kts 23°
2026-05-04 21:29 50.72652 3.50725 31205 ft 447 kts 23°